This demonstration page uses our WeatherBlox Daily Observations layout. Learn more.

Left ArrowRight Arrow

Hourly Observations for November 27, 2021

Temp ( °F °C ) Dew Point ( °F °C ) Humidity (%) Winds ( mph kmh ) Pressure ( in mb ) Visibility ( mi km ) Precip ( " mm )
12:53 am 00:53 Clear 36 2.2 22 -5.6 57 57 VRB 6 9 30.12 1020 10 16 0.00 0.00
1:53 am 01:53 Clear 36 2.2 20 -6.7 52 52 NNW 8 13 30.12 1020 10 16 0.00 0.00
2:53 am 02:53 Clear 35 1.7 19 -7.2 52 52 Calm 30.13 1020 10 16 0.00 0.00
3:53 am 03:53 Clear 35 1.7 20 -6.7 54 54 VRB 3 6 30.13 1020 10 16 0.00 0.00
4:53 am 04:53 Clear 34 1.1 20 -6.7 56 56 NNE 6 9 30.12 1020 10 16 0.00 0.00
5:53 am 05:53 Clear 34 1.1 20 -6.7 56 56 Calm 30.13 1020 10 16 0.00 0.00
6:53 am 06:53 Clear 32 0 20 -6.7 61 61 Calm 30.14 1021 10 16 0.00 0.00
7:53 am 07:53 Sunny 33 0.6 22 -5.6 64 64 NNW 5 7 30.16 1021 10 16 0.00 0.00
8:53 am 08:53 Sunny 37 2.8 22 -5.6 54 54 S 3 6 30.18 1022 10 16 0.00 0.00
9:53 am 09:53 Sunny 44 6.7 19 -7.2 37 37 Calm 30.17 1022 10 16 0.00 0.00
10:53 am 10:53 Sunny 51 10.6 17 -8.3 26 26 Calm 30.16 1021 10 16 0.00 0.00
11:53 am 11:53 Sunny 56 13.3 20 -6.7 24 24 W 7 11 30.14 1021 10 16 0.00 0.00
12:53 pm 12:53 Sunny 58 14.4 21 -6.1 24 24 NW 8 13 30.11 1020 10 16 0.00 0.00
1:53 pm 13:53 Sunny 59 15 21 -6.1 23 23 SW 3 6 30.08 1019 10 16 0.00 0.00
2:53 pm 14:53 Sunny 60 15.6 21 -6.1 22 22 Calm 30.05 1018 10 16 0.00 0.00
3:53 pm 15:53 Sunny 61 16.1 22 -5.6 22 22 SW 3 6 30.06 1018 10 16 0.00 0.00
4:53 pm 16:53 Sunny 60 15.6 25 -3.9 26 26 SSW 5 7 30.05 1018 10 16 0.00 0.00
5:53 pm 17:53 Clear 57 13.9 26 -3.3 30 30 SW 3 6 30.06 1018 10 16 0.00 0.00
6:53 pm 18:53 Clear 52 11.1 29 -1.7 41 41 Calm 30.06 1018 10 16 0.00 0.00
7:53 pm 19:53 Clear 46 7.8 30 -1.1 54 54 Calm 30.06 1018 10 16 0.00 0.00
8:53 pm 20:53 Clear 43 6.1 31 -0.6 63 63 Calm 30.06 1018 10 16 0.00 0.00
9:53 pm 21:53 Clear 42 5.6 31 -0.6 65 65 Calm 30.07 1018 10 16 0.00 0.00
10:53 pm 22:53 Clear 40 4.4 32 0 73 73 Calm 30.06 1018 10 16 0.00 0.00
11:53 pm 23:53 Clear 42 5.6 34 1.1 73 73 Calm 30.05 1018 10 16 0.00 0.00

Powered by AerisWeather